Terug naar catalogus

THORAD DELTA 1 DEB

ActiefSSO
NORAD 8140·DEBRIS·🇺🇸 United States

Gelanceerd Nov 15, 1974 vanaf Vandenberg Space Force Base

Loading…

Volgende Passages (komende 24 uur)

TLE

VersSource: Space-Track

Epoch: Sep 14, 2026, 08:54 UTC

1 08140U 74089J   26257.37151691 -.00000022  00000-0  16173-3 0  9992
2 08140 102.0502 216.2976 0043737  39.3170 128.8938 12.46738747358593

Volg THORAD DELTA 1 DEB in realtime met AllMySat

Download on the App Store